QFA435 YSSY-YMML

Flight info

Callsign QFA435
Flight time N/A
Altitude 34000
Route ABBEY3 WOL H65 LEECE Q29 BOOIN BOIN1A
Aircraft B737/M-SDE2E3FGHIRWXY/LB1

Departure

Time 2026-04-20 01:03
Airport Sydney Kingsford Smith International Airport (YSSY)

Arrival

Time N/A
Airport Melbourne Airport (YMML)
Time Latitude Longitude Altitude Speed Heading
2026-04-20 00:44 -33.93146 151.17857 29 ft 0 kts 191°
2026-04-20 00:55 -33.93130 151.17860 29 ft 2 kts 194°
2026-04-20 00:55 -33.93114 151.17865 29 ft 2 kts 196°
2026-04-20 00:56 -33.93098 151.17872 29 ft 2 kts 204°
2026-04-20 00:56 -33.93084 151.17882 29 ft 2 kts 226°
2026-04-20 00:56 -33.93077 151.17899 29 ft 2 kts 273°
2026-04-20 00:56 -33.93078 151.17908 29 ft 0 kts 278°
2026-04-20 00:59 -33.93061 151.17794 29 ft 25 kts 282°
2026-04-20 00:59 -33.93002 151.17574 29 ft 29 kts 281°
2026-04-20 00:59 -33.92970 151.17362 28 ft 21 kts 291°
2026-04-20 01:00 -33.92958 151.17303 30 ft 0 kts 282°
2026-04-20 01:01 -33.92955 151.17283 30 ft 9 kts 273°
2026-04-20 01:01 -33.92982 151.17205 28 ft 9 kts 220°
2026-04-20 01:02 -33.93045 151.17188 29 ft 13 kts 170°
2026-04-20 01:02 -33.93071 151.17195 28 ft 0 kts 167°
2026-04-20 01:03 -33.93191 151.17226 30 ft 59 kts 167°
2026-04-20 01:03 -33.93909 151.17417 34 ft 149 kts 169°
2026-04-20 01:03 -33.95092 151.17740 585 ft 191 kts 168°
2026-04-20 01:03 -33.96464 151.18056 1579 ft 205 kts 173°
2026-04-20 01:04 -33.97837 151.18212 2962 ft 196 kts 177°
2026-04-20 01:04 -33.99232 151.18144 4003 ft 204 kts 186°
2026-04-20 01:04 -34.00649 151.17917 4603 ft 208 kts 186°
2026-04-20 01:04 -34.02045 151.17707 4649 ft 192 kts 187°
2026-04-20 01:05 -34.03285 151.17637 4701 ft 175 kts 166°
2026-04-20 01:05 -34.04424 151.18069 4796 ft 177 kts 165°
2026-04-20 01:05 -34.05729 151.18512 5168 ft 205 kts 165°
2026-04-20 01:05 -34.07104 151.18971 5477 ft 234 kts 165°
2026-04-20 01:06 -34.08672 151.19493 5509 ft 264 kts 166°
2026-04-20 01:06 -34.10033 151.19948 5469 ft 263 kts 166°
2026-04-20 01:06 -34.11703 151.20507 5427 ft 259 kts 165°
2026-04-20 01:06 -34.13395 151.21073 5415 ft 250 kts 165°
2026-04-20 01:07 -34.15071 151.21632 5410 ft 246 kts 165°
2026-04-20 01:07 -34.16718 151.22174 5402 ft 244 kts 166°
2026-04-20 01:07 -34.18361 151.22681 5423 ft 249 kts 167°
2026-04-20 01:07 -34.20038 151.23191 5421 ft 248 kts 167°
2026-04-20 01:08 -34.21740 151.23700 5714 ft 256 kts 167°
2026-04-20 01:08 -34.23487 151.24197 6755 ft 255 kts 169°
2026-04-20 01:08 -34.25236 151.24641 7658 ft 259 kts 170°
2026-04-20 01:08 -34.27014 151.25089 8580 ft 262 kts 169°
2026-04-20 01:09 -34.28786 151.25546 9464 ft 266 kts 169°
2026-04-20 01:09 -34.30476 151.26006 10303 ft 270 kts 169°
2026-04-20 01:09 -34.32252 151.26513 10917 ft 283 kts 168°
2026-04-20 01:09 -34.34260 151.27096 11128 ft 310 kts 167°
2026-04-20 01:10 -34.36424 151.27754 11567 ft 326 kts 167°
2026-04-20 01:10 -34.40889 151.29055 13159 ft 333 kts 178°
2026-04-20 01:10 -34.43159 151.28600 13965 ft 337 kts 201°
2026-04-20 01:11 -34.45173 151.27096 14729 ft 344 kts 220°
2026-04-20 01:11 -34.46719 151.24887 15458 ft 351 kts 236°
2026-04-20 01:11 -34.47623 151.22179 16163 ft 360 kts 251°
2026-04-20 01:11 -34.48233 151.19244 16880 ft 365 kts 253°
2026-04-20 01:12 -34.48792 151.16203 17589 ft 369 kts 254°
2026-04-20 01:12 -34.49336 151.13173 18284 ft 373 kts 254°
2026-04-20 01:12 -34.49902 151.10075 18937 ft 377 kts 254°
2026-04-20 01:12 -34.50425 151.07266 19503 ft 379 kts 253°
2026-04-20 01:13 -34.51020 151.04119 20125 ft 382 kts 253°
2026-04-20 01:13 -34.51618 151.00989 20716 ft 386 kts 253°
2026-04-20 01:13 -34.52231 150.97793 21292 ft 390 kts 253°
2026-04-20 01:13 -34.52842 150.94606 21849 ft 394 kts 253°
2026-04-20 01:14 -34.53466 150.91345 22428 ft 397 kts 253°
2026-04-20 01:14 -34.54094 150.88061 22981 ft 400 kts 253°
2026-04-20 01:14 -34.54720 150.84783 23537 ft 404 kts 252°
2026-04-20 01:14 -34.55410 150.81455 24043 ft 404 kts 248°
2026-04-20 01:15 -34.56470 150.78299 24504 ft 402 kts 239°
2026-04-20 01:15 -34.57900 150.75435 24960 ft 400 kts 231°
2026-04-20 01:15 -34.59550 150.72694 25443 ft 402 kts 229°
2026-04-20 01:15 -34.61226 150.69964 25877 ft 404 kts 229°
2026-04-20 01:16 -34.62914 150.67216 26315 ft 406 kts 229°
2026-04-20 01:16 -34.64585 150.64481 26769 ft 408 kts 229°
2026-04-20 01:16 -34.66277 150.61695 27206 ft 410 kts 229°
2026-04-20 01:16 -34.67958 150.58912 27615 ft 412 kts 229°
2026-04-20 01:17 -34.69662 150.56081 28006 ft 415 kts 229°
2026-04-20 01:17 -34.71373 150.53230 28408 ft 417 kts 229°
2026-04-20 01:17 -34.73087 150.50370 28842 ft 418 kts 229°
2026-04-20 01:17 -34.74785 150.47532 29384 ft 416 kts 229°
2026-04-20 01:18 -34.76482 150.44691 29970 ft 414 kts 229°
2026-04-20 01:18 -34.78177 150.41852 30565 ft 410 kts 229°
2026-04-20 01:18 -34.79838 150.39070 31038 ft 409 kts 229°
2026-04-20 01:18 -34.81506 150.36274 31448 ft 408 kts 229°
2026-04-20 01:19 -34.83179 150.33472 31830 ft 408 kts 229°
2026-04-20 01:19 -34.84823 150.30713 32293 ft 406 kts 228°
2026-04-20 01:19 -34.86482 150.27926 32779 ft 403 kts 228°
2026-04-20 01:19 -34.88131 150.25156 33180 ft 403 kts 228°
2026-04-20 01:20 -34.89775 150.22390 33633 ft 401 kts 228°
2026-04-20 01:20 -34.91391 150.19670 34057 ft 399 kts 228°
2026-04-20 01:20 -34.93026 150.16916 34340 ft 401 kts 228°
2026-04-20 01:20 -34.94642 150.14196 34328 ft 405 kts 228°
2026-04-20 01:21 -34.97964 150.08587 34329 ft 401 kts 228°
2026-04-20 01:21 -35.01192 150.03127 34334 ft 398 kts 228°
2026-04-20 01:22 -35.04444 149.97626 34335 ft 400 kts 228°
2026-04-20 01:22 -35.07708 149.92097 34338 ft 401 kts 228°
2026-04-20 01:23 -35.10962 149.86585 34345 ft 402 kts 228°
2026-04-20 01:23 -35.14228 149.81042 34334 ft 403 kts 228°
2026-04-20 01:24 -35.17518 149.75446 34327 ft 404 kts 228°
2026-04-20 01:24 -35.20576 149.70238 34325 ft 403 kts 229°
2026-04-20 01:25 -35.23835 149.64678 34325 ft 402 kts 229°
2026-04-20 01:25 -35.27107 149.59086 34326 ft 402 kts 229°
2026-04-20 01:26 -35.30349 149.53538 34329 ft 401 kts 229°
2026-04-20 01:26 -35.33579 149.48003 34337 ft 401 kts 229°
2026-04-20 01:27 -35.36837 149.42411 34337 ft 401 kts 229°
2026-04-20 01:27 -35.40063 149.36864 34340 ft 401 kts 229°
2026-04-20 01:28 -35.43291 149.31305 34337 ft 401 kts 229°
2026-04-20 01:28 -35.46538 149.25705 34340 ft 401 kts 229°
2026-04-20 01:29 -35.49765 149.20130 34329 ft 402 kts 229°
2026-04-20 01:29 -35.52998 149.14536 34326 ft 402 kts 229°
2026-04-20 01:30 -35.56224 149.08945 34324 ft 403 kts 229°
2026-04-20 01:30 -35.59477 149.03297 34319 ft 403 kts 229°
2026-04-20 01:31 -35.62705 148.97685 34303 ft 404 kts 229°
2026-04-20 01:31 -35.65943 148.92044 34315 ft 404 kts 229°